Time,TemperatureF,DewpointF,PressureIn,WindDirection,WindDirectionDegrees,WindSpeedMPH,WindSpeedGustMPH,Humidity,HourlyPrecipIn,Conditions,Clouds,dailyrainin,SoftwareType,DateUTC
2015-08-31 00:05:00,72.0,45.0,29.72,SW,221,8.0,9.0,38,0.00,,,0.00,Wunderground v.1.15,2015-08-31 06:05:00,
2015-08-31 00:11:00,71.9,44.9,29.72,SW,222,6.0,7.0,38,0.00,,,0.00,Wunderground v.1.15,2015-08-31 06:11:00,
2015-08-31 00:17:00,71.9,44.9,29.72,SSW,207,6.0,8.0,38,0.00,,,0.00,Wunderground v.1.15,2015-08-31 06:17:00,
2015-08-31 00:22:00,72.2,44.5,29.72,SW,214,6.0,8.0,37,0.00,,,0.00,Wunderground v.1.15,2015-08-31 06:22:00,
2015-08-31 00:28:00,72.6,44.8,29.72,SW,221,7.0,9.0,37,0.00,,,0.00,Wunderground v.1.15,2015-08-31 06:28:00,
2015-08-31 00:33:00,72.9,45.1,29.73,SSW,209,7.0,8.0,37,0.00,,,0.00,Wunderground v.1.15,2015-08-31 06:33:00,
2015-08-31 00:39:00,72.8,45.0,29.73,SW,217,8.0,12.0,37,0.00,,,0.00,Wunderground v.1.15,2015-08-31 06:39:00,
2015-08-31 00:44:00,73.0,45.2,29.73,SW,221,10.0,16.0,37,0.00,,,0.00,Wunderground v.1.15,2015-08-31 06:44:00,
2015-08-31 00:50:00,72.8,45.0,29.73,SSW,212,9.0,9.0,37,0.00,,,0.00,Wunderground v.1.15,2015-08-31 06:50:00,
2015-08-31 00:55:00,72.7,44.9,29.73,SW,224,8.0,14.0,37,0.00,,,0.00,Wunderground v.1.15,2015-08-31 06:55:00,
2015-08-31 01:00:00,72.8,45.0,29.74,SSW,209,9.0,9.0,37,0.00,,,0.00,Wunderground v.1.15,2015-08-31 07:00:00,
2015-08-31 01:06:00,72.6,45.5,29.73,SSW,211,9.0,14.0,38,0.00,,,0.00,Wunderground v.1.15,2015-08-31 07:06:00,
2015-08-31 01:11:00,72.8,45.0,29.73,SW,231,11.0,15.0,37,0.00,,,0.00,Wunderground v.1.15,2015-08-31 07:11:00,
2015-08-31 01:16:00,73.0,45.2,29.74,SW,223,13.0,24.0,37,0.00,,,0.00,Wunderground v.1.15,2015-08-31 07:16:00,
2015-08-31 01:22:00,73.0,45.2,29.74,SW,221,15.0,21.0,37,0.00,,,0.00,Wunderground v.1.15,2015-08-31 07:22:00,
2015-08-31 01:27:00,72.9,45.1,29.74,SW,226,15.0,21.0,37,0.00,,,0.00,Wunderground v.1.15,2015-08-31 07:27:00,
2015-08-31 01:33:00,72.7,45.6,29.74,SW,219,15.0,17.0,38,0.00,,,0.00,Wunderground v.1.15,2015-08-31 07:33:00,
2015-08-31 01:38:00,72.5,45.4,29.74,SW,227,16.0,20.0,38,0.00,,,0.00,Wunderground v.1.15,2015-08-31 07:38:00,
2015-08-31 01:43:00,72.4,45.4,29.74,WSW,244,15.0,17.0,38,0.00,,,0.00,Wunderground v.1.15,2015-08-31 07:43:00,
2015-08-31 01:49:00,72.2,45.2,29.74,SW,215,15.0,18.0,38,0.00,,,0.00,Wunderground v.1.15,2015-08-31 07:49:00,
2015-08-31 01:54:00,72.2,45.9,29.74,SW,232,16.0,22.0,39,0.00,,,0.00,Wunderground v.1.15,2015-08-31 07:54:00,
2015-08-31 02:00:00,72.1,45.8,29.74,SW,219,17.0,17.0,39,0.00,,,0.00,Wunderground v.1.15,2015-08-31 08:00:00,
2015-08-31 02:06:00,71.9,45.6,29.74,SW,227,16.0,17.0,39,0.00,,,0.00,Wunderground v.1.15,2015-08-31 08:06:00,
2015-08-31 02:12:00,71.7,45.4,29.74,SW,236,15.0,15.0,39,0.00,,,0.00,Wunderground v.1.15,2015-08-31 08:12:00,
2015-08-31 02:17:00,71.6,46.0,29.74,SSW,199,15.0,17.0,40,0.00,,,0.00,Wunderground v.1.15,2015-08-31 08:17:00,
2015-08-31 02:23:00,71.3,45.7,29.74,SSW,192,14.0,17.0,40,0.00,,,0.00,Wunderground v.1.15,2015-08-31 08:23:00,
2015-08-31 02:28:00,71.3,46.4,29.73,SSW,211,13.0,17.0,41,0.00,,,0.00,Wunderground v.1.15,2015-08-31 08:28:00,
2015-08-31 02:33:00,71.2,46.3,29.74,SW,225,14.0,18.0,41,0.00,,,0.00,Wunderground v.1.15,2015-08-31 08:33:00,
2015-08-31 02:39:00,70.9,46.0,29.74,SW,225,14.0,18.0,41,0.00,,,0.00,Wunderground v.1.15,2015-08-31 08:39:00,
2015-08-31 02:44:00,70.8,45.9,29.74,SW,215,13.0,17.0,41,0.00,,,0.00,Wunderground v.1.15,2015-08-31 08:44:00,
2015-08-31 02:50:00,70.6,45.7,29.73,SSW,202,13.0,13.0,41,0.00,,,0.00,Wunderground v.1.15,2015-08-31 08:50:00,
2015-08-31 02:55:00,70.4,46.2,29.73,SW,234,13.0,14.0,42,0.00,,,0.00,Wunderground v.1.15,2015-08-31 08:55:00,
2015-08-31 03:00:00,70.2,46.0,29.75,WNW,289,12.0,12.0,42,0.00,,,0.00,Wunderground v.1.15,2015-08-31 09:00:00,
2015-08-31 03:06:00,69.3,46.4,29.75,West,278,9.0,12.0,44,0.00,,,0.00,Wunderground v.1.15,2015-08-31 09:06:00,
2015-08-31 03:11:00,69.4,46.5,29.75,West,265,8.0,9.0,44,0.00,,,0.00,Wunderground v.1.15,2015-08-31 09:11:00,
2015-08-31 03:17:00,69.3,46.4,29.75,WSW,255,9.0,13.0,44,0.00,,,0.00,Wunderground v.1.15,2015-08-31 09:17:00,
2015-08-31 03:22:00,69.2,46.4,29.76,West,281,8.0,9.0,44,0.00,,,0.00,Wunderground v.1.15,2015-08-31 09:22:00,
2015-08-31 03:27:00,68.8,46.0,29.76,WNW,297,5.0,9.0,44,0.00,,,0.00,Wunderground v.1.15,2015-08-31 09:27:00,
2015-08-31 03:33:00,68.4,46.2,29.76,WNW,290,5.0,7.0,45,0.00,,,0.00,Wunderground v.1.15,2015-08-31 09:33:00,
2015-08-31 03:38:00,68.5,45.7,29.76,WNW,294,7.0,8.0,44,0.00,,,0.00,Wunderground v.1.15,2015-08-31 09:38:00,
2015-08-31 03:44:00,68.4,46.2,29.76,West,279,7.0,8.0,45,0.00,,,0.00,Wunderground v.1.15,2015-08-31 09:44:00,
2015-08-31 03:49:00,68.4,45.6,29.77,West,274,6.0,9.0,44,0.00,,,0.00,Wunderground v.1.15,2015-08-31 09:49:00,
2015-08-31 03:55:00,68.5,45.7,29.77,WSW,245,6.0,7.0,44,0.00,,,0.00,Wunderground v.1.15,2015-08-31 09:55:00,
2015-08-31 04:00:00,67.9,45.8,29.78,WSW,247,4.0,4.0,45,0.00,,,0.00,Wunderground v.1.15,2015-08-31 10:00:00,
2015-08-31 04:05:00,67.5,45.4,29.78,WSW,243,4.0,5.0,45,0.00,,,0.00,Wunderground v.1.15,2015-08-31 10:05:00,
2015-08-31 04:11:00,67.6,45.5,29.79,SW,233,4.0,6.0,45,0.00,,,0.00,Wunderground v.1.15,2015-08-31 10:11:00,
2015-08-31 04:16:00,67.8,45.1,29.78,SW,236,5.0,6.0,44,0.00,,,0.00,Wunderground v.1.15,2015-08-31 10:16:00,
2015-08-31 04:22:00,67.9,45.2,29.78,SW,228,6.0,7.0,44,0.00,,,0.00,Wunderground v.1.15,2015-08-31 10:22:00,
2015-08-31 04:27:00,67.9,45.2,29.78,WSW,254,6.0,8.0,44,0.00,,,0.00,Wunderground v.1.15,2015-08-31 10:27:00,
2015-08-31 04:32:00,67.3,45.2,29.79,WNW,284,4.0,7.0,45,0.00,,,0.00,Wunderground v.1.15,2015-08-31 10:32:00,
2015-08-31 04:38:00,67.2,45.7,29.79,SW,232,5.0,7.0,46,0.00,,,0.00,Wunderground v.1.15,2015-08-31 10:38:00,
2015-08-31 04:43:00,67.0,45.5,29.79,WSW,241,5.0,9.0,46,0.00,,,0.00,Wunderground v.1.15,2015-08-31 10:43:00,
2015-08-31 04:49:00,66.7,45.3,29.79,WSW,255,5.0,9.0,46,0.00,,,0.00,Wunderground v.1.15,2015-08-31 10:49:00,
2015-08-31 04:54:00,66.6,45.2,29.79,SW,227,6.0,10.0,46,0.00,,,0.00,Wunderground v.1.15,2015-08-31 10:54:00,
2015-08-31 05:00:00,67.0,46.1,29.78,WSW,238,7.0,7.0,47,0.00,,,0.00,Wunderground v.1.15,2015-08-31 11:00:00,
2015-08-31 05:06:00,67.3,46.4,29.78,West,265,7.0,8.0,47,0.00,,,0.00,Wunderground v.1.15,2015-08-31 11:06:00,
2015-08-31 05:12:00,67.1,46.2,29.78,West,269,7.0,7.0,47,0.00,,,0.00,Wunderground v.1.15,2015-08-31 11:12:00,
2015-08-31 05:17:00,66.9,46.0,29.78,WSW,240,7.0,10.0,47,0.00,,,0.00,Wunderground v.1.15,2015-08-31 11:17:00,
2015-08-31 05:22:00,67.1,46.2,29.78,WSW,255,7.0,8.0,47,0.00,,,0.00,Wunderground v.1.15,2015-08-31 11:22:00,
2015-08-31 05:28:00,67.5,46.0,29.78,SW,232,8.0,12.0,46,0.00,,,0.00,Wunderground v.1.15,2015-08-31 11:28:00,
2015-08-31 05:33:00,67.4,45.9,29.78,WNW,283,8.0,9.0,46,0.00,,,0.00,Wunderground v.1.15,2015-08-31 11:33:00,
2015-08-31 05:39:00,67.0,46.1,29.78,West,263,7.0,10.0,47,0.00,,,0.00,Wunderground v.1.15,2015-08-31 11:39:00,
2015-08-31 05:44:00,66.2,45.9,29.79,West,263,6.0,8.0,48,0.00,,,0.00,Wunderground v.1.15,2015-08-31 11:44:00,
2015-08-31 05:49:00,66.1,46.4,29.79,WSW,257,6.0,8.0,49,0.00,,,0.00,Wunderground v.1.15,2015-08-31 11:49:00,
2015-08-31 05:55:00,66.3,46.6,29.79,West,273,6.0,8.0,49,0.00,,,0.00,Wunderground v.1.15,2015-08-31 11:55:00,
2015-08-31 06:00:00,66.2,46.5,29.80,NW,304,5.0,5.0,49,0.00,,,0.00,Wunderground v.1.15,2015-08-31 12:00:00,
2015-08-31 06:06:00,65.8,46.1,29.79,West,280,3.0,7.0,49,0.00,,,0.00,Wunderground v.1.15,2015-08-31 12:06:00,
2015-08-31 06:11:00,65.6,46.5,29.80,West,272,4.0,9.0,50,0.00,,,0.00,Wunderground v.1.15,2015-08-31 12:11:00,
2015-08-31 06:17:00,65.9,46.7,29.80,WNW,297,5.0,9.0,50,0.00,,,0.00,Wunderground v.1.15,2015-08-31 12:17:00,
2015-08-31 06:22:00,65.8,46.1,29.80,WSW,253,5.0,5.0,49,0.00,,,0.00,Wunderground v.1.15,2015-08-31 12:22:00,
2015-08-31 06:27:00,65.7,46.5,29.80,West,266,5.0,9.0,50,0.00,,,0.00,Wunderground v.1.15,2015-08-31 12:27:00,
2015-08-31 06:33:00,65.3,46.2,29.80,WNW,291,5.0,6.0,50,0.00,,,0.00,Wunderground v.1.15,2015-08-31 12:33:00,
2015-08-31 06:38:00,65.2,46.6,29.80,WSW,255,4.0,7.0,51,0.00,,,0.00,Wunderground v.1.15,2015-08-31 12:38:00,
2015-08-31 06:43:00,65.7,46.5,29.80,SW,234,6.0,11.0,50,0.00,,,0.00,Wunderground v.1.15,2015-08-31 12:43:00,
2015-08-31 06:49:00,65.9,46.7,29.81,West,272,7.0,11.0,50,0.00,,,0.00,Wunderground v.1.15,2015-08-31 12:49:00,
2015-08-31 06:54:00,65.8,46.6,29.81,WSW,249,7.0,10.0,50,0.00,,,0.00,Wunderground v.1.15,2015-08-31 12:54:00,
2015-08-31 07:00:00,65.9,46.7,29.81,West,259,6.0,6.0,50,0.00,,,0.00,Wunderground v.1.15,2015-08-31 13:00:00,
2015-08-31 07:06:00,66.1,46.9,29.82,West,280,7.0,8.0,50,0.00,,,0.00,Wunderground v.1.15,2015-08-31 13:06:00,
2015-08-31 07:12:00,65.7,46.5,29.82,NNW,331,5.0,6.0,50,0.00,,,0.00,Wunderground v.1.15,2015-08-31 13:12:00,
2015-08-31 07:17:00,65.2,46.6,29.83,NW,319,4.0,6.0,51,0.00,,,0.00,Wunderground v.1.15,2015-08-31 13:17:00,
2015-08-31 07:23:00,64.9,46.8,29.83,West,281,4.0,4.0,52,0.00,,,0.00,Wunderground v.1.15,2015-08-31 13:23:00,
2015-08-31 07:28:00,64.9,46.8,29.84,NNE,17,3.0,5.0,52,0.00,,,0.00,Wunderground v.1.15,2015-08-31 13:28:00,
2015-08-31 07:34:00,62.5,45.1,29.85,North,11,4.0,8.0,53,0.00,,,0.00,Wunderground v.1.15,2015-08-31 13:34:00,
2015-08-31 07:39:00,61.0,45.2,29.85,North,360,4.0,8.0,56,0.00,,,0.00,Wunderground v.1.15,2015-08-31 13:39:00,
2015-08-31 07:44:00,60.3,45.5,29.85,North,355,2.0,4.0,58,0.00,,,0.00,Wunderground v.1.15,2015-08-31 13:44:00,
2015-08-31 07:50:00,59.5,45.6,29.85,North,355,3.0,3.0,60,0.00,,,0.00,Wunderground v.1.15,2015-08-31 13:50:00,
2015-08-31 07:55:00,58.9,45.5,29.85,North,5,4.0,6.0,61,0.00,,,0.00,Wunderground v.1.15,2015-08-31 13:55:00,
2015-08-31 08:00:00,58.7,45.7,29.85,North,5,4.0,4.0,62,0.00,,,0.00,Wunderground v.1.15,2015-08-31 14:00:00,
2015-08-31 08:06:00,59.3,46.3,29.85,NNE,13,5.0,8.0,62,0.00,,,0.00,Wunderground v.1.15,2015-08-31 14:06:00,
2015-08-31 08:11:00,59.9,46.0,29.86,NW,325,5.0,5.0,60,0.00,,,0.00,Wunderground v.1.15,2015-08-31 14:11:00,
2015-08-31 08:17:00,60.5,46.5,29.86,NE,46,4.0,7.0,60,0.00,,,0.00,Wunderground v.1.15,2015-08-31 14:17:00,
2015-08-31 08:22:00,60.8,46.4,29.86,NE,40,4.0,6.0,59,0.00,,,0.00,Wunderground v.1.15,2015-08-31 14:22:00,
2015-08-31 08:28:00,60.9,46.5,29.86,NNE,27,4.0,6.0,59,0.00,,,0.00,Wunderground v.1.15,2015-08-31 14:28:00,
2015-08-31 08:33:00,60.9,46.9,29.87,NNE,24,5.0,8.0,60,0.00,,,0.00,Wunderground v.1.15,2015-08-31 14:33:00,
2015-08-31 08:38:00,61.1,47.1,29.86,NNE,31,5.0,8.0,60,0.00,,,0.00,Wunderground v.1.15,2015-08-31 14:38:00,
2015-08-31 08:44:00,61.5,47.0,29.86,NE,36,3.0,4.0,59,0.00,,,0.00,Wunderground v.1.15,2015-08-31 14:44:00,
2015-08-31 08:49:00,61.9,47.4,29.87,North,355,3.0,6.0,59,0.00,,,0.00,Wunderground v.1.15,2015-08-31 14:49:00,
2015-08-31 08:55:00,62.3,47.3,29.87,NNW,345,4.0,8.0,58,0.00,,,0.00,Wunderground v.1.15,2015-08-31 14:55:00,
2015-08-31 09:00:00,62.2,46.8,29.87,North,9,4.0,4.0,57,0.00,,,0.00,Wunderground v.1.15,2015-08-31 15:00:00,
2015-08-31 09:06:00,61.9,47.0,29.87,North,9,5.0,8.0,58,0.00,,,0.00,Wunderground v.1.15,2015-08-31 15:06:00,
2015-08-31 09:11:00,61.7,46.8,29.87,NNW,341,5.0,5.0,58,0.00,,,0.00,Wunderground v.1.15,2015-08-31 15:11:00,
2015-08-31 09:16:00,62.3,46.9,29.87,WNW,290,3.0,5.0,57,0.00,,,0.00,Wunderground v.1.15,2015-08-31 15:16:00,
2015-08-31 09:22:00,62.6,47.1,29.87,NW,319,4.0,4.0,57,0.00,,,0.00,Wunderground v.1.15,2015-08-31 15:22:00,
2015-08-31 09:27:00,63.2,47.7,29.88,NNW,330,5.0,5.0,57,0.00,,,0.00,Wunderground v.1.15,2015-08-31 15:27:00,